Location: Rimouski
(48.4330°N, 68.5170°W)
Time: 05:58:42
(UTC-04:00)

Daily predictions for brighter satellites

Satellite Brightness Start Highest point End
(mag) Time Altitude Azimuth Time Altitude Azimuth Time Altitude Azimuth
Terra 4.4 00:06:58 12° W 00:06:58 12° W 00:08:25 10° WNW
Lacrosse 4 Rocket 3.5 00:09:41 26° NNE 00:09:41 26° NNE 00:11:41 10° NNE
Nadezhda 4 Rocket 4.5 00:09:12 10° NNW 00:15:01 50° W 00:15:01 50° W
Cosmos 2219 Rocket 3.2 00:23:49 38° ENE 00:23:49 38° ENE 00:27:29 10° NE
Cosmos 2263 Rocket 4.4 00:21:53 10° WNW 00:23:33 13° W 00:23:33 13° W
Cosmos 1680 Rocket 4.3 00:30:38 50° N 00:30:38 50° N 00:34:35 10° NNE
ATLAS CENTAUR R/B 4.5 00:27:00 10° NNW 00:29:41 15° NNE 00:32:15 10° NE
Cosmos 2322 Rocket 4.4 00:29:50 12° W 00:33:31 20° NW 00:37:40 10° N
COSMOS 2455 3.8 00:35:56 38° ENE 00:35:56 38° ENE 00:40:00 10° NE
SL-16 R/B 4.1 00:37:13 20° E 00:37:13 20° E 00:39:55 10° NE
Cosmos 2333 Rocket 3.1 00:39:46 43° ENE 00:39:46 43° ENE 00:43:52 10° NE
Cosmos 2297 4.3 00:33:20 10° NNW 00:38:38 53° NE 00:38:38 53° NE
Cosmos 2237 Rocket 3.2 00:41:33 38° ENE 00:41:33 38° ENE 00:45:26 10° NE
Cosmos 2026 Rocket 4.1 00:35:46 10° NNW 00:41:07 64° NW 00:41:07 64° NW
H-2A R/B 4.5 00:41:21 10° N 00:43:20 26° N 00:43:20 26° N
Cosmos 1818 4.2 00:42:00 10° NW 00:46:25 54° N 00:46:25 54° N
Cosmos 2221 4.4 00:51:44 28° NNE 00:51:44 28° NNE 00:54:01 10° NNE
COSMOS 2428 3.3 00:55:04 52° NW 00:55:04 52° NW 01:00:15 10° NNE
Meteor 2-20 Rocket 4.5 01:00:12 10° N 01:05:54 75° NNE 01:05:54 75° NNE
ATLAS 3B R/B 2.9 01:08:52 69° ESE 01:08:52 69° ESE 01:16:10 10° NE
Cosmos 2278 Rocket 3.3 01:05:50 10° NW 01:09:23 36° WNW 01:09:23 36° WNW
NOSS 0 Rocket 4.0 01:12:15 74° NNE 01:12:15 74° NNE 01:17:51 10° NNE
CZ-2C R/B 3.5 01:33:17 10° N 01:38:09 43° WNW 01:38:09 43° WNW
Exosat Rocket 3.8 01:35:02 10° NNW 01:39:27 68° N 01:39:27 68° N
Cosmos 2360 Rocket 4.5 01:43:12 12° WNW 01:46:08 17° NW 01:49:42 10° N
Lacrosse 4 Rocket 3.9 01:46:01 17° NW 01:46:40 17° NW 01:49:37 10° N
CZ-4C R/B 2.9 01:48:41 44° E 01:48:41 44° E 01:53:43 10° NE
Nadezhda 2 Rocket 4.4 01:48:06 10° N 01:54:33 84° W 01:54:42 83° SW
Cosmos 2369 Rocket 3.6 01:49:46 10° NNW 01:54:55 36° NE 01:59:52 11° ESE
Cosmos 1932 4.3 01:54:54 88° SSW 01:54:58 90° SE 02:01:21 10° NE
Cosmos 2228 Rocket 4.0 01:57:59 48° N 01:57:59 48° N 02:01:20 10° N
Cosmos 1867 3.9 01:57:28 57° E 01:57:28 57° E 02:02:13 10° NE
NPP 4.4 01:53:59 10° NNE 01:59:07 43° E 01:59:19 43° ESE
Cosmos 1269 Rocket 4.4 01:59:40 56° E 01:59:40 56° E 02:04:26 10° NNE
USA 238 DEB 3.6 02:01:31 68° SSE 02:02:12 73° SE 02:09:15 10° NE
USA 238 3.6 02:01:38 67° SSE 02:02:19 72° SE 02:09:20 10° NE
Cosmos 2219 Rocket 3.4 02:05:32 30° WNW 02:06:16 31° NW 02:11:16 10° NNE
Cosmos 1515 Rocket 4.4 02:09:48 48° NNE 02:09:48 48° NNE 02:13:00 10° N
ATLAS CENTAUR R/B 2.5 02:05:34 10° NNW 02:09:57 45° NE 02:09:58 45° NE
SL-16 R/B 3.7 02:07:02 13° SE 02:12:05 39° ENE 02:17:45 10° N
Resurs 1-4 Rocket 4.2 02:11:32 10° NE 02:15:17 19° E 02:17:37 15° ESE
SL-08 R/B 3.5 02:16:47 65° N 02:16:47 65° N 02:20:51 10° NNW
Cosmos 1244 Rocket 4.4 02:11:15 10° NNW 02:17:34 76° W 02:18:03 72° SW
NOSS 3-2 (A) 4.1 02:17:12 41° SE 02:17:55 42° ESE 02:24:06 10° NE
Cosmos 1943 Rocket 4.2 02:13:13 10° NNW 02:18:00 27° NE 02:22:46 10° ESE
SL-16 R/B 2.2 02:19:06 68° WNW 02:19:16 69° WNW 02:24:59 10° NNE
COSMOS 2455 3.7 02:19:04 36° WNW 02:20:18 40° NW 02:26:00 10° NNE
Meteor 1-4 Rocket 4.4 02:23:55 29° NE 02:23:55 29° NE 02:25:59 10° NNE
Cosmos 2333 Rocket 3.4 02:21:46 30° WNW 02:22:49 32° NW 02:27:57 10° NNE
Cosmos 2237 Rocket 3.2 02:23:22 32° WNW 02:24:12 34° NW 02:29:24 10° NNE
NOSS 3-3 (A) 4.3 02:17:24 10° NW 02:24:47 89° SW 02:32:41 10° SE
NOSS 3-3 (C) 4.3 02:17:31 10° NW 02:24:53 90° SW 02:32:48 10° SE
Cosmos 1553 Rocket 4.1 02:24:01 52° SSE 02:25:21 65° E 02:31:25 10° NNE
Cosmos 1745 Rocket 4.1 02:19:07 10° N 02:25:31 72° E 02:27:33 45° SSE
Cosmos 1271 Rocket 4.0 02:27:05 39° ENE 02:27:05 39° ENE 02:30:24 10° NNE
Cosmos 1110 Rocket 4.2 02:27:11 10° NNW 02:32:25 69° ENE 02:33:45 48° SE
Aureole 2 Rocket 4.0 02:34:29 36° NNW 02:34:29 36° NNW 02:37:41 10° NNE
NOSS 3-2 (C) 4.1 02:33:31 40° SSE 02:34:47 44° ESE 02:41:04 10° NE
SL-08 R/B 4.3 02:29:04 10° N 02:35:13 86° W 02:36:23 61° S
AQUA 3.8 02:30:49 10° NNE 02:35:37 73° ESE 02:35:40 73° ESE
Cosmos 2251 Rocket 4.4 02:35:20 35° SE 02:36:22 39° ESE 02:41:12 10° NE
Cosmos 1417 Rocket 4.4 02:36:46 62° SSW 02:37:57 82° W 02:44:22 10° N
Cosmos 1340 Rocket 3.6 02:34:12 10° N 02:37:12 49° N 02:37:12 49° N
CBERS-1 3.9 02:35:56 10° NNE 02:41:05 83° ESE 02:41:32 74° SSE
Meteor 2-2 Rocket 4.2 02:40:48 64° SW 02:41:35 73° WNW 02:47:30 10° N
BREEZE-M DEB (TANK) 3.7 02:40:47 47° SSW 02:42:36 62° SSE 02:46:26 10° ENE
ERS-2 3.6 02:39:53 10° NNE 02:43:09 32° E 02:43:09 32° E
Cosmos 839 Rocket 4.4 02:37:49 10° NW 02:46:33 83° SW 02:53:23 10° SSE
SL-24 R/B 4.3 02:47:09 65° SE 02:47:44 77° ENE 02:52:38 10° N
IRAS Rocket 4.5 02:43:12 10° NNE 02:48:48 63° ESE 02:50:22 45° SSE
UNK 4.3 02:49:43 33° SE 02:51:34 55° ENE 02:56:05 10° N
Cosmos 1607 4.1 02:50:26 47° W 02:51:57 61° NW 02:58:05 10° NE
ATLAS 5 CENTAUR R/B 3.7 02:51:54 18° SE 02:53:23 20° ESE 02:57:06 10° ENE
Abrixas rocket 3.9 02:58:14 30° E 02:58:14 30° E 03:00:03 10° E
Cosmos 1707 Rocket 3.8 02:57:25 58° SE 02:58:00 65° E 03:02:28 10° NNE
ATLAS 3B R/B 3.7 02:56:06 25° W 03:00:04 42° NNW 03:06:56 10° NE
Cosmos 1151 Rocket 3.7 03:02:08 43° WNW 03:02:08 43° WNW 03:05:58 10° N
Cosmos 1603 3.7 03:00:41 56° SW 03:01:56 78° WNW 03:07:42 10° NNE
IRS-1C 4.0 02:57:56 10° NNE 03:03:18 81° WNW 03:04:29 56° SSW
In-Cosmos 22 Rocket 3.9 02:58:16 10° NNW 03:03:36 78° W 03:04:53 52° S
UNKNOWN OBJECT B 4.5 03:04:15 10° NE 03:07:28 27° E 03:08:45 22° SE
EO 1 Del DPAF 4.2 03:07:33 26° SE 03:09:24 48° ENE 03:13:11 10° N
Iridium 2 4.5 03:06:19 10° N 03:10:03 49° E 03:11:09 36° SE
Cosmos 494 Rocket 4.4 03:10:38 37° SSE 03:12:30 59° ESE 03:17:40 10° NNE
Cosmos 2292 Rocket 3.3 03:14:17 10° N 03:17:08 53° ENE 03:17:08 53° ENE
Meteor 2-3 Rocket 3.7 03:11:46 10° NNW 03:17:32 72° W 03:20:01 35° S
Cosmos 1892 2.8 03:14:40 10° N 03:18:33 71° E 03:19:25 50° SE
CZ-2D R/B 2.4 03:16:01 10° NNE 03:21:18 64° ESE 03:23:57 29° S
Okean O Rocket 3.7 03:18:48 10° NE 03:22:24 23° E 03:25:59 10° SSE
Cosmos 1302 Rocket 3.9 03:17:41 10° NNW 03:22:59 87° WSW 03:27:48 12° SSE
CZ-3A R/B 3.4 03:21:47 17° W 03:26:27 47° NNW 03:30:26 10° ENE
Cosmos 2315 Rocket 4.2 03:22:51 22° S 03:27:00 71° E 03:33:18 10° NNE
Spot 4 Rocket 4.0 03:23:04 10° N 03:28:13 68° WNW 03:29:55 42° SW
IRS-1D 3.5 03:23:04 10° NNE 03:28:18 87° ESE 03:30:40 34° SSW
Cosmos 1726 2.6 03:30:25 45° WNW 03:30:25 45° WNW 03:33:53 10° N
Cosmos 1943 3.2 03:29:24 36° SSW 03:31:50 84° ESE 03:37:31 10° NNE
CZ-4C R/B 3.0 03:33:52 27° W 03:36:34 44° NW 03:42:38 10° NE
ADEOS 3.8 03:32:20 10° N 03:37:25 53° WNW 03:39:14 36° WSW
Cosmos 1331 Rocket 4.4 03:32:51 10° NW 03:37:46 41° WSW 03:38:47 37° SW
ARIANE 5 R/B 2.5 03:32:47 10° N 03:38:03 75° WNW 03:40:23 34° SSW
Cosmos 1356 Rocket 4.3 03:34:28 10° NNW 03:37:32 32° WNW 03:37:32 32° WNW
Cosmos 2369 Rocket 2.4 03:33:45 10° NW 03:39:04 45° WSW 03:41:29 29° SSW
Cosmos 1300 3.7 03:40:07 31° WNW 03:40:07 31° WNW 03:43:32 10° N
Cosmos 546 4.5 03:39:13 41° WNW 03:40:27 81° SSW 03:44:18 10° ESE
USA 234 3.3 03:37:34 10° ENE 03:44:08 72° SE 03:47:57 27° SW
Cosmos 389 Rocket 3.9 03:43:22 17° SSE 03:45:39 36° E 03:48:54 10° NNE
Meteor 2-11 Rocket 4.5 03:41:28 19° S 03:46:03 82° E 03:52:09 10° NNE
Cosmos 1184 Rocket 2.9 03:43:53 10° N 03:47:21 79° E 03:49:22 23° SSE
ATLAS CENTAUR R/B 3.4 03:45:07 10° WNW 03:46:10 15° WNW 03:46:10 15° WNW
SeaSat 1 2.4 03:45:19 10° SSE 03:50:15 85° WSW 03:55:14 10° NNW
Cosmos 1455 2.2 03:51:10 31° S 03:52:57 89° ESE 03:56:53 10° N
ERBS 3.7 03:52:59 24° WNW 03:54:22 32° NNW 03:57:36 10° NE
Resurs 1-4 Rocket 2.1 03:50:23 10° N 03:55:37 67° WNW 03:58:41 25° SSW
SL-16 R/B 2.9 03:52:07 23° SSW 03:55:39 43° W 04:01:33 10° NNW
Cosmos 2242 Rocket 3.9 03:59:17 30° SW 04:01:17 52° WNW 04:05:47 10° N
Cosmos 1943 Rocket 2.1 03:56:37 10° NNW 04:02:15 66° WSW 04:07:50 10° SSE
Cosmos 1271 Rocket 4.4 04:02:19 19° WNW 04:02:51 20° WNW 04:05:53 10° NNW
SL-16 R/B 4.2 04:00:59 11° WNW 04:04:30 17° NW 04:08:14 10° N
Cosmos 1862 Rocket 3.5 04:03:46 19° S 04:06:55 87° WNW 04:11:22 10° N
CZ-2C R/B 3.6 04:03:18 10° SSE 04:07:45 89° WSW 04:12:13 10° NNW
NOSS 3-2 (A) 4.0 04:04:36 21° WSW 04:08:41 52° NW 04:15:26 10° NE
ADEOS II 4.1 04:05:25 10° NE 04:09:50 26° E 04:14:13 10° SSE
Cosmos 1709 Rocket 4.4 04:06:31 10° NNW 04:12:26 42° W 04:17:24 14° SSW
Okean 2 Rocket 4.4 04:10:25 10° N 04:14:45 44° ENE 04:19:04 10° SSE
Thor Agena Rocket 3.8 04:10:19 10° SSE 04:15:27 73° ENE 04:20:41 10° NNW
ERS-2 3.6 04:13:58 10° NNW 04:16:55 22° WNW 04:17:59 20° W
Cosmos 1992 Rocket 4.0 04:13:11 10° NNW 04:18:27 89° WSW 04:23:41 10° SSE
Cosmos 2251 Rocket 4.4 04:15:49 20° WSW 04:18:41 35° WNW 04:23:30 10° N
Cosmos 1408 2.7 04:14:56 10° N 04:18:42 83° E 04:22:27 10° S
CENTAUR R/B 2.9 04:19:17 13° SSW 04:24:51 66° SE 04:31:48 10° NE
USA 32 4.5 04:20:29 10° S 04:25:39 65° E 04:30:52 10° N
NOSS 3-2 (C) 4.1 04:20:58 18° WSW 04:25:39 51° NW 04:32:25 10° NE
Cosmos 1825 2.1 04:22:13 10° NNW 04:26:02 80° W 04:29:49 10° S
BREEZE-M DEB (TANK) 2.8 04:28:25 25° SW 04:28:35 25° SSW 04:30:38 10° SSE
Cosmos 1733 Rocket 3.8 04:25:02 10° NNW 04:28:56 32° W 04:32:11 14° SSW
IRS-1C Rocket 4.1 04:23:56 10° NNE 04:29:14 84° WNW 04:34:31 10° SSW
SL-27 R/B 2.6 04:26:50 13° SSW 04:30:03 79° ESE 04:33:41 10° NNE
MOZ.5/SAFIR/RUBIN 5/SL-8 3.9 04:25:35 10° S 04:30:06 52° W 04:34:40 10° NNW
ARGOS Delta rocket 3.7 04:26:55 10° N 04:31:17 59° WNW 04:35:21 11° SSW
Cosmos 1656 Rocket 3.5 04:28:16 10° NNW 04:33:43 75° WSW 04:39:06 10° SSE
Abrixas rocket 2.1 04:31:10 16° W 04:33:45 73° SSW 04:37:06 10° ESE
Cosmos 2074 Rocket 4.0 04:28:39 10° NNW 04:34:47 62° W 04:40:54 10° S
Cosmos 2327 Rocket 4.5 04:30:59 10° NNW 04:36:59 61° W 04:43:01 10° S
Cosmos 1782 Rocket 3.5 04:32:52 10° N 04:37:15 88° E 04:41:35 10° S
Cosmos 2154 Rocket 4.3 04:31:05 10° N 04:37:25 76° E 04:43:46 10° SSE
ATLAS 5 CENTAUR R/B 2.0 04:33:28 16° SW 04:37:26 73° NW 04:42:50 10° NE
Cosmos 2184 Rocket 4.1 04:32:31 10° NNW 04:38:48 60° W 04:45:01 10° S
Cosmos 1862 3.4 04:35:34 10° NNW 04:39:27 52° W 04:43:19 10° S
UNKNOWN OBJECT B 3.9 04:38:51 10° N 04:41:58 26° WNW 04:44:16 15° WSW
Meteor 1-14 Rocket 4.5 04:46:03 10° N 04:51:53 83° ENE 04:57:48 10° SSE
Cosmos 1869 4.4 04:50:13 12° SW 04:53:15 27° WNW 04:56:41 10° NNW
CZ-4B R/B 2.7 04:50:58 10° N 04:54:33 58° WNW 04:58:13 10° SSW
Cosmos 1908 Rocket 4.2 04:53:42 10° NNW 04:57:42 35° W 05:01:40 10° SSW
Cosmos 2341 Rocket 4.2 04:52:17 10° N 04:58:37 84° E 05:04:57 10° S
Okean O Rocket 2.1 04:54:44 10° N 04:58:58 42° WNW 05:03:10 10° SW
Cosmos 1933 3.7 04:56:37 10° SSW 05:00:34 46° WNW 05:04:33 10° N
CZ-2D R/B 3.5 04:56:55 10° N 05:00:55 22° WNW 05:04:53 10° WSW
Okean-O 2.8 04:59:41 10° NNE 05:04:10 79° ESE 05:08:36 10° S
COSMO-SKYMED 1 4.4 05:00:28 10° SE 05:04:26 37° ENE 05:08:27 10° N
Cosmos 2221 Rocket 3.6 05:00:36 10° SSW 05:04:59 61° WNW 05:09:24 10° N
Cosmos 2278 4.4 05:00:01 10° NNW 05:05:43 61° ENE 05:11:22 10° SE
Cosmos 407 Rocket 3.9 05:04:05 10° SSW 05:09:16 70° ESE 05:14:33 10° NNE
Cosmos 2285 Rocket 4.5 05:03:38 10° NW 05:09:31 39° W 05:15:20 10° SSW
COSMOS 2406 3.4 05:10:37 10° SW 05:16:20 64° WNW 05:22:05 10° NNE
